Torna al catalogo

MUOS 4

AttivoMilitareGEO
NORAD 40887·PAYLOAD·🇺🇸 United States

Lanciato Sep 2, 2015 da Cape Canaveral Space Force Station

Loading…

TLE

AggiornatoSource: Space-Track

Epoca: Sep 14, 2026, 12:26 UTC

1 40887U 15044A   26257.51862867 -.00000099  00000-0  00000-0 0  9995
2 40887   4.4973  42.6450 0053180   3.7382 208.8021  1.00272221 40458

Traccia MUOS 4 in tempo reale con AllMySat

Download on the App Store